Theta_e
310 313 319 319 315 312 311 309 307 306 305 302 301 301 301 300 300 301 302 303 302 303 301 302 301 300 299 296 296 296 295 295 295 294 295 296 302 300 300 302 300 301 299
299 306 315 313 313 310 310 307 307 305 305 303 302 302 300 300 300 301 300 301 302 302 301 301 301 300 299 297 296 295 294 294 294 293 291 290 294 296 298 301 302 299 298
298 305 310 310 309 308 307 307 307 306 305 304 302 300 300 299 299 299 299 300 301 302 302 301 300 300 299 298 296 295 295 293 293 294 292 289 287 290 295 296 298 296 296
294 306 309 306 307 307 305 307 306 305 305 303 302 300 299 298 298 299 299 299 300 301 302 302 301 300 299 298 296 297 295 294 292 294 296 294 293 290 290 295 295 296 296
294 305 308 308 306 305 305 305 305 305 304 302 301 299 297 297 298 298 298 298 298 299 301 302 301 300 300 299 298 297 296 294 293 293 293 293 292 292 291 289 291 294 295
294 303 306 305 303 303 303 303 304 303 303 302 300 299 298 297 296 296 296 296 296 297 298 301 300 300 300 299 299 297 296 295 295 294 294 293 292 291 290 289 289 289 292
293 296 299 304 303 302 302 303 303 302 301 301 300 299 298 297 296 296 295 295 296 296 297 299 299 299 299 300 299 297 296 296 295 294 294 294 294 294 293 291 290 289 291
293 297 298 301 302 302 302 303 302 301 301 300 300 300 299 298 297 297 296 296 296 296 297 298 298 298 299 299 298 297 296 296 295 294 294 294 295 295 294 293 290 288 288
293 296 298 299 300 300 301 301 301 300 300 300 300 299 299 299 299 298 297 296 295 297 297 297 297 297 297 297 296 295 295 295 295 294 294 293 294 294 294 293 293 290 286
292 292 293 294 295 296 296 298 299 298 299 299 299 300 299 299 298 297 296 296 296 296 295 295 295 295 295 294 293 293 293 293 293 294 292 292 293 293 293 293 293 292 290
291 291 291 292 292 293 294 294 294 294 294 295 295 295 295 296 295 295 294 294 293 294 294 294 293 293 292 292 291 291 291 290 290 290 290 290 290 291 291 291 291 291 290
290 290 290 290 291 291 292 292 292 293 292 293 293 293 294 293 293 293 293 293 293 293 293 293 293 293 293 292 291 290 290 289 289 289 289 289 291 289 288 288 288 289 289
289 288 289 289 289 290 290 290 291 291 291 291 291 291 290 291 290 291 291 292 291 291 291 291 290 291 292 291 291 291 290 290 289 289 289 289 289 288 288 288 288 288 290
289 288 288 288 289 289 289 289 289 289 289 289 288 287 287 287 287 287 288 288 288 287 287 287 287 287 288 289 290 290 288 287 288 288 288 287 288 288 288 289 289 290 288
288 288 287 288 288 288 288 288 287 287 287 286 286 285 285 285 285 285 285 285 285 285 285 285 285 285 287 289 288 288 288 287 287 287 287 288 290 293 292 290 288 287 287
289 288 288 288 287 287 286 286 285 285 285 284 284 284 284 283 283 283 283 283 283 283 283 283 283 283 286 291 292 290 286 287 287 286 286 287 289 289 293 293 292 291 287
288 288 288 287 286 285 285 283 283 284 283 283 283 283 283 283 283 283 283 282 282 282 282 282 282 282 283 290 291 291 286 285 284 284 285 285 288 288 286 289 292 291 292
287 287 286 284 284 283 283 282 282 282 282 282 282 283 283 283 283 282 282 281 281 281 281 281 281 281 282 289 290 290 284 283 283 283 283 283 283 284 287 286 285 285 286
288 287 285 283 281 281 281 280 280 280 281 281 282 283 283 282 282 281 281 281 280 280 280 281 281 280 281 287 289 288 283 282 282 283 283 283 283 288 291 287 283 283 284
286 283 282 281 280 279 279 280 279 281 281 281 282 282 283 282 281 280 280 280 280 280 281 281 281 283 280 285 288 287 282 281 281 281 281 286 287 290 290 285 282 281 282
283 282 282 280 280 280 281 280 280 280 282 283 283 283 282 282 281 280 280 280 279 279 279 279 279 279 280 281 287 288 284 281 281 281 281 282 288 289 290 290 284 284 285
283 282 281 281 281 282 282 280 280 283 283 283 283 282 282 282 282 279 279 279 278 277 277 277 278 279 279 284 286 287 287 287 282 282 282 283 288 289 290 289 289 290 289
282 283 282 282 282 282 282 281 281 283 283 282 281 281 281 281 280 279 278 277 277 276 276 278 277 278 280 279 286 287 287 288 285 283 285 288 289 289 287 288 289 289 283
282 282 281 280 280 281 281 281 282 282 282 280 280 280 280 280 279 279 278 276 276 276 278 278 278 277 279 279 280 281 281 284 284 285 283 285 287 288 286 284 283 281 280
282 282 281 280 279 280 280 281 282 281 280 280 279 279 279 278 278 278 276 275 277 279 278 278 279 278 278 280 285 285 283 282 284 285 282 280 280 280 280 280 280 280 280
281 280 280 279 280 280 280 280 281 280 279 279 279 279 278 276 277 276 275 282 284 285 285 285 284 282 285 286 286 286 286 287 287 283 279 278 279 278 279 279 279 280 281
Wind_Speed
5 6 7 7 8 7 10 12 11 8 8 3 4 3 4 2 1 2 3 4 3 4 4 3 3 3 3 2 2 1 4 4 4 3 3 3 3 3 3 3 2 4 4
7 6 8 9 11 12 12 10 9 10 6 4 3 3 3 2 2 2 2 3 4 4 4 4 3 3 2 3 3 4 2 2 5 2 2 4 4 4 3 3 3 4 3
12 8 8 9 9 12 13 12 11 10 7 7 5 4 4 3 2 1 1 2 3 3 4 4 3 3 3 2 1 2 4 2 3 5 3 3 1 3 3 3 3 5 4
5 7 9 9 11 9 8 9 9 9 7 8 5 6 4 4 3 3 2 3 3 3 3 4 3 3 2 2 1 2 2 2 2 2 3 3 2 2 5 3 3 5 5
8 9 10 10 7 9 10 8 8 8 7 7 7 5 4 2 2 2 4 2 1 2 2 3 3 3 2 2 2 2 2 1 2 1 1 2 2 2 1 4 5 4 3
5 7 7 8 7 7 7 7 8 6 7 7 7 8 8 6 4 3 3 2 1 1 1 2 2 2 2 2 2 2 2 2 1 1 1 1 1 1 1 2 3 4 5
5 7 9 10 8 8 8 7 8 7 7 7 7 7 7 6 6 4 3 3 1 1 3 2 2 1 2 2 2 2 1 1 1 1 1 1 2 2 2 1 3 3 3
4 5 6 7 8 8 8 8 8 7 7 7 6 5 6 4 3 4 3 3 2 1 1 3 2 2 1 1 1 0 1 1 1 2 2 1 2 2 2 2 1 3 3
6 6 6 6 7 7 7 8 8 6 7 7 5 5 5 5 4 4 3 2 2 0 1 2 2 0 0 1 1 1 2 1 1 2 2 2 2 2 3 3 3 3 3
7 6 6 7 6 6 6 7 6 7 6 6 5 5 5 5 5 5 5 5 3 3 4 3 3 3 2 2 1 2 2 2 2 2 3 2 3 3 2 3 3 3 4
8 7 7 6 7 7 7 7 7 8 7 6 6 7 6 6 6 6 6 6 6 6 6 6 6 5 5 5 4 4 4 4 4 4 4 5 4 3 3 3 2 3 3
8 8 7 7 7 7 7 8 7 9 7 7 9 8 8 8 9 8 7 6 7 7 6 6 7 6 6 6 6 6 6 6 6 6 6 5 4 5 4 3 5 3 3
9 7 7 7 7 7 7 7 7 8 7 9 10 9 8 10 9 8 7 7 7 7 7 7 7 6 6 6 6 5 5 5 5 4 5 5 5 5 3 4 4 3 4
10 8 7 7 7 7 8 8 8 7 7 9 10 10 9 8 8 7 7 7 6 7 6 6 6 6 5 5 5 5 5 5 4 4 4 5 4 5 5 5 5 4 4
12 11 9 8 8 8 8 8 8 8 8 10 10 8 7 7 7 7 7 6 7 6 6 6 6 6 4 3 5 4 4 5 6 5 5 4 7 10 9 5 5 5 3
13 12 11 10 9 9 8 8 8 7 8 9 8 7 7 7 7 6 6 6 6 6 6 6 5 6 3 10 11 8 4 5 5 6 6 5 8 8 12 13 13 11 6
15 14 13 11 9 8 8 9 8 6 8 8 7 7 6 7 6 6 6 6 5 4 5 5 5 5 5 11 13 13 3 5 5 6 5 6 6 9 6 11 13 12 15
15 13 11 9 8 7 7 7 7 7 7 7 7 6 6 6 6 6 5 4 3 4 3 4 5 5 5 13 14 14 5 5 6 6 6 6 7 8 9 6 6 6 6
16 14 12 10 9 9 8 9 7 7 7 6 6 6 6 6 5 5 4 3 3 3 3 3 5 5 6 12 13 10 5 5 6 6 6 6 7 14 17 8 7 6 6
13 14 12 9 10 7 8 9 7 7 7 6 6 5 5 5 5 4 3 2 2 3 3 5 4 7 5 10 12 11 3 4 4 6 6 11 14 19 17 8 6 5 6
17 14 13 11 9 7 9 8 7 7 6 6 6 5 5 5 4 3 2 2 3 4 4 4 5 5 5 6 12 14 6 4 4 4 4 4 16 18 18 17 6 7 9
16 14 12 10 7 7 9 7 7 6 6 6 5 5 5 3 3 3 3 3 3 4 5 5 4 4 5 10 11 16 15 14 4 5 4 6 17 20 20 17 18 21 17
14 13 13 11 7 7 7 8 4 6 5 5 5 4 3 3 3 3 3 3 3 3 4 3 3 4 4 4 14 16 16 16 10 5 10 20 19 18 13 14 18 17 4
13 12 13 11 9 8 8 7 5 5 5 5 4 3 2 2 3 2 2 2 3 4 3 4 4 4 4 5 5 6 7 12 8 11 8 9 14 14 11 9 7 4 4
12 11 10 9 8 6 7 5 5 5 4 3 2 2 1 2 2 2 3 3 5 4 4 4 4 4 5 6 12 11 7 5 7 14 2 3 3 4 5 5 5 4 4
11 11 9 9 7 7 6 4 3 4 3 1 1 1 1 1 2 2 4 9 10 12 13 14 10 5 12 16 16 17 17 18 19 6 3 5 5 5 6 6 6 5 8
Wind_Direction
235 215 182 155 141 145 153 157 148 151 139 132 127 117 133 137 104 147 144 140 130 112 107 100 91 78 75 61 16 36 31 5 343 31 3 359 353 22 343 360 18 5 358
228 193 164 159 171 166 165 152 152 154 159 136 134 128 140 153 135 141 124 140 127 121 122 116 104 106 101 55 38 43 21 9 10 83 83 15 335 348 7 350 351 358 333
203 188 170 171 159 164 164 159 158 162 153 132 111 81 76 64 76 85 130 186 145 138 128 124 124 121 114 111 88 67 63 26 355 40 116 37 305 328 326 347 340 349 340
204 185 172 165 167 167 141 144 149 152 148 148 133 140 149 151 188 163 173 164 155 154 141 132 129 127 127 125 130 99 86 87 25 352 42 68 129 24 333 331 329 326 332
216 185 177 167 154 143 153 146 139 143 143 152 148 138 140 136 134 123 138 144 175 162 145 133 130 136 145 142 135 110 107 108 125 98 11 38 53 94 121 296 320 330 311
187 156 138 129 127 124 127 138 142 146 145 149 151 155 158 152 134 131 152 172 166 213 188 149 138 154 160 171 171 138 135 137 121 137 155 151 142 242 126 284 297 266 300
144 142 147 145 141 146 145 141 142 147 152 153 158 160 159 155 159 161 166 157 161 225 225 175 178 182 201 187 156 161 194 188 180 190 231 192 208 172 181 179 274 293 299
138 125 138 141 145 145 143 140 146 142 156 158 158 149 145 146 159 163 152 166 182 198 194 194 189 207 220 180 171 177 243 212 249 262 242 271 256 208 188 200 182 316 296
133 117 104 114 123 127 140 144 143 142 155 155 145 146 144 148 154 142 136 145 128 130 129 142 154 118 280 257 202 270 295 321 288 282 275 262 271 242 235 215 185 179 295
114 100 90 97 89 99 104 105 119 135 140 135 133 129 133 123 115 108 94 82 74 71 87 86 66 47 35 30 51 341 341 333 317 299 309 289 285 293 276 253 234 207 211
121 109 95 79 85 82 87 96 93 98 94 100 97 98 94 95 89 87 82 82 76 72 68 66 65 54 46 32 38 16 11 9 356 357 357 337 328 317 318 308 279 258 198
117 111 107 102 90 90 84 89 85 91 87 95 98 91 89 85 83 78 72 68 70 57 60 57 56 47 43 40 41 34 28 30 20 7 3 353 347 333 327 319 299 271 252
119 114 107 106 106 98 96 94 91 95 90 95 95 85 79 82 79 75 70 66 68 60 53 54 50 43 47 41 37 41 29 20 17 2 355 336 343 334 330 325 300 285 288
143 131 118 112 108 106 108 105 95 93 96 93 91 88 83 84 81 77 70 69 64 65 57 51 48 37 32 38 27 27 18 4 353 341 338 329 329 318 315 310 311 322 316
154 147 138 132 122 113 106 104 98 96 101 97 94 92 89 84 82 75 71 67 60 59 54 45 34 25 19 9 2 2 347 333 323 318 313 306 306 309 312 314 309 309 293
157 149 142 138 133 131 123 115 108 100 101 98 98 96 88 82 78 74 70 64 56 50 46 35 25 11 355 348 351 349 328 314 299 297 298 292 302 298 303 311 313 309 301
157 155 151 147 143 138 132 124 117 108 98 99 95 92 89 84 77 74 65 55 49 39 31 14 11 351 333 342 342 336 318 313 308 299 294 303 300 307 286 297 302 304 302
154 152 149 142 137 125 116 114 111 105 101 96 95 92 89 86 77 68 57 42 40 25 8 355 352 340 324 341 339 334 330 316 306 305 300 289 288 289 291 267 277 279 272
155 151 148 139 132 132 131 119 110 111 106 107 103 98 92 83 70 59 43 31 27 0 353 330 335 334 313 328 333 332 332 328 313 301 295 291 284 291 300 283 272 280 283
137 134 128 119 124 128 125 119 121 114 113 118 111 100 89 81 72 61 34 19 5 333 341 332 316 308 313 323 332 331 314 299 291 290 288 301 308 310 307 296 268 275 267
129 124 127 131 131 130 123 119 124 119 129 117 107 93 82 81 74 53 41 7 1 352 329 316 310 316 319 312 326 325 315 284 279 278 289 282 306 309 307 304 294 266 280
123 123 120 119 122 124 118 119 113 128 115 107 100 87 76 64 61 65 19 358 348 341 325 313 304 305 309 316 317 318 316 313 303 288 273 279 298 302 306 308 299 301 307
123 123 121 116 108 111 114 112 118 109 113 94 85 81 75 59 63 30 355 345 337 315 306 298 303 297 291 286 303 309 312 311 306 290 289 308 310 304 306 299 302 313 312
112 113 111 108 100 92 89 103 118 103 94 102 103 95 60 51 18 358 334 339 317 300 282 284 281 279 286 288 288 286 285 290 295 293 288 288 302 306 301 309 304 289 275
102 104 105 103 102 103 95 82 77 94 107 114 95 67 58 31 338 313 270 254 259 254 264 265 270 282 282 269 288 306 300 280 283 308 300 299 297 298 301 295 283 282 282
96 96 99 96 85 77 77 80 91 108 115 103 110 180 196 306 315 312 309 314 307 305 305 306 302 283 302 306 306 313 311 308 308 324 302 293 283 278 285 288 290 283 291